RH
71 71 75 74 74 73 72 72 71 70 71 74 79 86 92 98 99 97 95 92 88 86 86 85 75 59 54 59 56 45 38 37 35 37 40 36 31 24 13 13 14 15 16 15 16 16 16 16 16 15 14 15 15 17 18 19 24 30 33 34 32 30 30 30 30 30 28 25 21 22 25 27 27 27 27 27 26 25 23 20 17 15 17 19 25 31 37 38 35 26 17 15 14 14 16 18 19
71 72 74 74 74 72 70 71 70 68 67 70 78 86 92 98 97 98 97 90 89 89 89 87 75 62 57 59 54 41 38 38 35 34 36 30 23 18 12 13 15 16 15 14 14 14 14 14 14 14 14 15 16 18 19 23 29 33 34 35 33 32 33 34 35 34 32 27 24 25 26 27 27 27 26 25 24 24 23 20 19 19 21 25 30 37 41 41 36 26 17 16 14 15 20 26 29
72 74 76 75 75 72 69 69 69 65 64 71 78 84 92 100 98 98 97 91 92 91 89 92 83 71 62 56 51 44 42 39 37 35 33 25 16 15 13 14 16 16 15 14 14 13 13 13 14 14 15 16 17 18 21 26 31 35 36 35 35 36 37 39 39 39 37 32 27 26 26 25 24 25 24 24 24 24 24 24 23 24 27 31 35 39 43 42 38 27 18 16 15 16 23 33 39
69 73 73 72 72 69 66 65 64 61 62 73 82 88 94 100 100 97 96 90 87 86 85 90 82 70 57 47 43 40 39 36 39 39 28 19 16 14 11 15 17 16 15 13 13 13 13 14 15 15 15 17 19 21 23 28 34 38 38 37 37 38 39 40 41 41 39 35 31 28 27 26 25 26 26 27 27 28 31 31 31 32 36 40 40 41 42 41 38 29 22 19 16 17 23 34 42
63 65 63 58 57 55 54 56 55 57 62 73 84 93 97 98 100 97 95 87 78 78 78 83 84 79 64 48 45 42 39 32 34 41 27 14 16 15 11 15 17 17 14 12 13 12 14 14 16 16 17 20 23 26 28 33 39 43 42 40 40 39 39 39 41 44 43 41 37 33 31 29 29 30 28 28 29 33 37 38 38 38 43 45 42 41 39 38 38 33 29 26 20 19 22 32 40
55 54 50 43 42 42 45 51 52 60 69 78 85 94 98 93 97 97 91 82 75 77 75 73 76 82 71 56 55 51 46 34 26 36 28 12 14 15 12 16 18 16 14 12 13 13 15 16 17 19 22 25 28 31 35 39 43 45 44 42 42 40 39 40 42 44 46 46 43 40 37 36 35 34 31 29 29 34 38 39 39 41 43 44 41 40 39 39 39 36 34 31 25 21 24 35 40
49 46 42 41 46 49 50 53 57 67 77 85 86 92 98 91 96 96 87 83 80 79 74 68 65 68 62 51 49 46 45 35 21 26 24 11 12 14 13 17 18 16 13 12 14 15 16 18 21 25 27 29 31 33 37 41 43 45 45 45 45 41 40 43 44 45 48 49 49 46 43 40 38 37 34 31 31 35 38 40 40 41 42 41 41 41 42 43 41 35 31 29 28 25 26 38 42
45 41 40 49 58 61 60 62 69 77 81 88 87 90 95 89 93 91 85 88 86 81 73 69 66 60 53 46 43 39 39 32 23 21 17 11 11 13 14 17 18 16 13 12 14 16 18 21 26 32 34 32 32 34 36 39 42 44 46 46 45 41 41 45 47 48 49 51 52 51 48 44 41 40 37 35 36 40 41 40 40 41 40 40 40 42 44 42 35 29 26 28 27 25 28 37 42
43 38 44 60 64 64 70 78 85 88 88 90 90 95 96 88 89 86 82 86 88 87 78 70 63 54 47 43 39 34 35 30 24 20 14 10 11 12 14 18 18 14 12 11 14 17 20 24 29 33 34 33 32 33 34 36 38 40 42 42 40 40 44 47 49 48 48 50 52 53 52 50 46 43 41 40 41 42 41 41 40 39 38 37 39 40 39 33 26 24 25 27 26 29 36 39 38
42 39 51 68 69 71 79 84 87 89 92 92 94 99 97 91 88 84 81 82 84 83 74 66 59 53 44 38 36 32 33 31 24 21 15 10 10 12 14 19 18 13 10 11 15 18 22 27 30 31 32 32 32 31 31 32 33 34 35 36 37 41 46 47 47 47 47 48 49 50 50 48 45 44 44 44 42 41 43 45 41 36 36 37 38 37 32 26 23 24 25 24 25 33 40 38 35
42 39 52 69 74 79 80 79 83 85 91 94 97 97 92 93 89 85 83 74 74 73 63 57 57 56 44 36 36 33 33 31 26 22 15 11 10 11 15 19 19 13 9 12 16 21 25 28 31 32 31 31 29 28 27 27 28 30 33 36 39 43 45 44 44 45 44 44 45 46 46 44 42 43 43 42 40 40 46 48 42 37 37 36 34 33 29 27 26 27 25 23 25 32 36 33 30
40 37 46 65 73 78 75 76 81 81 89 96 99 95 89 95 91 86 85 68 68 73 61 55 55 53 44 37 35 33 34 32 29 24 15 12 10 11 16 19 18 14 9 12 18 22 26 28 31 32 31 30 28 25 24 24 25 30 38 41 43 43 43 43 42 41 41 42 42 42 42 41 40 41 41 42 42 43 47 46 42 39 38 34 32 32 31 31 31 29 25 23 26 31 30 24 21
40 36 40 59 70 74 74 78 82 82 91 98 99 94 88 94 90 86 87 72 72 74 62 59 57 52 44 37 36 35 35 33 31 25 16 12 9 10 16 19 18 13 9 12 18 23 26 28 31 31 30 29 26 25 24 25 27 33 41 44 43 42 43 42 41 40 40 40 38 37 38 37 38 40 42 45 47 47 47 45 42 38 35 32 31 31 30 30 28 24 21 24 31 30 23 17 15
42 39 37 51 66 73 75 78 81 82 91 98 98 93 88 92 88 85 86 76 76 73 63 62 57 51 45 37 36 36 36 35 32 26 16 12 10 10 15 19 18 13 8 11 17 22 26 28 30 30 29 27 26 25 26 29 32 36 41 41 41 41 41 40 40 40 39 37 34 33 34 35 37 41 44 47 49 48 45 43 40 36 32 30 28 26 24 21 19 18 19 27 35 30 22 17 14
46 45 37 43 60 69 73 77 78 79 87 97 98 94 93 92 88 87 86 77 75 71 66 65 59 52 46 38 36 35 37 35 32 28 18 12 10 10 13 18 18 13 8 10 17 22 26 28 29 28 27 27 28 28 30 33 37 40 40 40 40 39 38 37 37 37 36 33 30 29 31 33 36 39 42 45 46 44 40 37 34 31 28 24 22 19 17 14 15 21 25 31 35 32 24 16 14
44 46 40 40 53 65 73 75 76 80 86 95 95 94 96 92 91 90 87 81 74 68 69 69 64 57 49 42 37 34 36 36 33 29 20 13 10 9 12 17 18 13 9 10 16 21 25 27 28 27 27 28 29 29 31 35 41 42 40 39 37 35 33 33 34 35 34 32 29 28 30 32 34 37 39 40 40 38 32 28 26 24 21 19 17 15 14 15 19 26 32 35 37 38 30 17 15
41 44 43 44 52 63 74 74 73 79 85 94 91 89 96 94 93 88 84 84 75 68 72 72 67 60 53 46 40 35 35 35 33 30 23 15 11 9 11 16 18 14 10 11 15 20 24 26 26 26 26 27 27 28 30 36 41 39 37 37 35 33 31 31 35 37 34 31 28 28 31 32 33 35 35 34 32 30 25 22 19 17 14 13 12 12 14 17 22 30 37 39 40 41 32 18 15
41 46 50 53 57 63 72 73 74 78 83 93 90 85 93 96 94 91 89 86 77 69 70 73 69 62 57 50 43 36 35 35 34 32 26 18 12 9 10 15 18 14 11 11 15 19 22 23 23 24 25 24 25 26 28 32 34 32 33 35 34 34 31 29 32 34 29 26 26 28 31 32 31 30 28 26 25 25 24 22 19 16 16 16 16 16 17 19 23 30 37 38 38 37 29 19 15
46 50 59 63 66 70 72 75 78 80 83 90 92 89 92 95 94 95 94 86 80 73 71 76 72 64 61 54 46 38 35 35 35 34 29 22 15 10 9 14 18 16 11 10 14 17 20 21 20 22 23 23 24 25 27 29 28 27 29 29 27 28 25 24 25 25 23 22 24 27 28 28 25 23 22 22 24 27 27 25 21 19 21 24 25 22 21 21 22 28 34 36 34 30 26 21 17
52 50 63 68 71 78 75 76 80 82 84 86 93 95 92 93 93 97 96 86 83 77 74 76 69 63 61 55 49 41 36 36 37 36 31 25 17 11 9 12 17 17 13 10 12 15 18 20 19 20 21 22 24 24 26 27 26 26 26 24 23 23 20 19 19 19 20 20 22 23 23 21 20 19 21 24 29 30 28 25 20 17 18 21 21 20 19 21 23 28 35 38 36 29 23 22 19
53 52 64 69 69 78 76 74 78 81 84 85 92 97 96 96 93 95 95 93 91 81 74 71 63 61 57 52 50 42 38 37 38 37 33 28 19 13 9 11 16 16 14 11 12 14 15 18 18 18 20 21 22 23 24 24 24 27 28 27 26 24 19 16 15 15 16 18 18 18 18 17 17 17 17 20 23 22 18 16 14 13 14 15 16 17 18 20 22 24 29 32 33 30 25 23 21
54 57 64 70 67 73 76 73 74 78 85 85 82 88 93 93 91 89 87 93 94 80 72 68 64 62 53 48 47 42 40 38 39 37 34 31 23 15 9 10 15 16 15 11 12 15 13 16 18 16 18 19 20 22 22 24 26 29 30 29 25 21 17 14 13 12 12 14 15 15 16 16 14 13 12 12 11 10 9 9 10 11 13 15 17 19 20 20 21 21 23 23 24 25 25 24 23
58 63 63 69 69 71 76 74 73 75 86 87 77 79 86 88 93 90 86 93 90 75 72 71 66 62 56 48 43 40 40 39 40 37 35 31 24 17 10 9 13 15 16 11 11 16 14 13 17 15 13 15 17 19 21 25 28 30 32 29 22 19 16 12 10 10 11 12 14 15 14 12 10 9 9 9 8 7 8 8 9 11 13 16 19 20 21 20 20 20 20 20 19 20 22 24 24
63 61 57 65 68 69 73 72 73 74 80 85 79 80 85 91 96 92 90 95 89 77 76 76 70 64 59 50 42 40 40 41 41 38 36 31 24 18 12 9 12 14 16 13 9 16 19 12 14 13 10 14 16 16 20 25 29 32 36 33 26 25 22 16 12 9 9 12 15 14 11 10 9 9 9 9 9 9 9 8 9 12 14 17 19 19 20 19 19 18 18 19 19 22 25 27 27
59 50 48 62 67 67 71 71 73 75 77 83 84 82 86 92 92 89 92 93 87 83 80 78 75 68 58 50 44 42 43 43 41 39 36 32 26 21 15 9 10 14 15 15 9 15 24 16 12 11 10 14 14 15 20 23 27 33 41 38 31 29 28 26 22 14 11 15 17 13 11 11 10 10 12 11 10 10 9 9 9 11 14 17 19 17 16 16 16 16 16 17 19 23 27 29 30
46 42 41 56 67 67 71 72 73 73 75 81 86 86 88 86 84 88 96 95 90 87 83 79 75 66 58 53 48 45 45 44 42 40 37 33 28 24 20 12 9 13 15 16 10 11 24 23 13 9 11 13 13 15 18 20 23 32 40 39 32 29 28 29 27 21 16 18 18 14 13 12 11 12 14 12 11 10 10 10 9 11 14 17 17 15 13 14 14 14 13 13 15 19 23 28 31
32 39 39 51 68 70 69 74 76 73 74 80 86 87 87 86 86 91 93 95 94 88 82 79 75 66 58 56 51 48 48 45 41 40 37 33 28 24 21 14 9 12 14 16 12 7 18 28 17 8 11 12 11 13 14 17 21 30 37 34 28 27 27 25 22 21 19 20 19 16 15 13 13 14 13 13 13 12 11 11 11 12 15 16 15 14 13 13 12 12 11 11 12 14 18 23 28
24 40 44 50 66 77 78 79 80 78 78 81 86 87 86 90 93 90 84 85 90 87 81 76 73 67 61 58 53 52 53 47 41 38 36 33 28 23 21 14 9 11 14 15 14 6 11 29 22 7 9 9 9 11 12 16 20 26 30 27 23 23 25 23 19 19 18 20 19 16 14 13 13 13 12 14 15 14 13 12 12 12 14 16 14 14 13 12 11 9 10 10 10 11 13 17 21
24 33 38 44 57 78 85 82 82 82 81 80 82 84 83 86 89 87 82 81 84 83 77 72 69 67 63 59 57 57 56 50 43 37 34 34 29 24 21 15 8 10 14 14 15 7 7 27 25 7 7 8 9 13 14 17 19 20 22 22 22 19 21 23 21 19 19 19 18 15 13 13 13 12 12 14 15 16 14 12 12 11 13 15 15 14 13 11 10 9 9 10 9 9 10 12 15
24 20 24 34 49 70 79 80 82 82 82 80 78 80 78 78 82 86 86 85 86 82 76 73 70 68 64 60 59 61 59 53 47 38 33 33 29 24 20 15 8 9 13 12 15 9 5 23 26 9 5 7 9 13 16 18 19 17 16 18 20 19 20 23 21 18 20 22 20 15 12 13 13 12 13 14 15 16 15 13 11 11 12 14 15 14 11 10 10 10 9 9 9 8 8 8 10
24 19 16 23 40 59 66 71 76 77 79 77 73 75 76 75 75 80 82 83 86 84 79 75 71 69 65 61 61 62 61 54 48 39 32 31 27 23 19 14 9 9 12 12 15 10 3 19 26 11 4 7 9 12 16 19 19 17 15 15 19 21 20 22 23 19 18 21 19 15 13 13 13 12 13 14 14 15 17 16 12 11 12 13 15 14 12 10 9 8 7 7 8 8 7 7 8
23 24 18 17 28 41 49 56 62 65 68 68 65 65 68 69 67 69 72 74 78 80 81 78 72 69 67 65 64 64 62 57 49 37 31 30 26 22 19 13 9 8 11 12 14 11 3 14 26 15 4 5 8 11 16 20 18 16 15 14 16 19 21 23 26 23 20 18 16 16 15 14 14 14 15 14 13 14 18 18 14 12 11 12 14 15 14 12 9 7 7 7 7 8 9 9 9
15 20 21 21 25 30 36 40 44 49 54 55 55 56 58 58 57 58 60 63 67 72 79 83 80 74 70 70 67 64 63 61 55 40 31 31 26 22 19 13 9 8 10 11 13 13 4 10 22 16 6 5 7 10 16 21 19 16 16 15 15 18 22 23 23 21 19 18 15 14 14 15 16 18 18 15 13 15 19 20 16 13 11 11 13 15 16 13 10 8 7 8 9 10 11 12 13
6 10 15 20 27 33 34 34 33 35 41 44 46 52 53 49 48 49 51 57 63 68 77 87 89 83 77 75 71 66 63 64 60 44 31 30 27 23 20 15 10 7 9 10 12 13 5 8 17 14 6 4 6 9 16 22 20 17 17 17 16 17 19 18 17 17 17 17 15 14 15 17 19 19 19 18 17 19 22 21 17 14 12 11 12 14 15 14 11 9 8 8 9 11 12 13 15
3 4 8 12 22 34 38 36 32 29 33 35 39 49 49 46 46 46 52 61 65 67 74 84 89 90 86 82 77 70 65 64 63 48 29 26 27 25 22 16 11 8 9 10 12 13 6 7 14 12 6 4 5 8 15 21 20 17 18 18 17 17 16 16 16 17 17 17 16 16 20 21 21 20 20 20 21 23 24 22 18 15 13 11 11 13 15 15 13 9 8 8 9 10 11 12 14
3 3 4 5 11 23 31 35 32 26 28 28 37 51 52 51 51 50 54 58 61 63 65 73 82 88 89 87 82 76 69 64 65 55 33 25 27 26 24 18 11 8 9 10 12 12 6 8 15 11 5 4 5 7 16 22 21 18 17 17 17 17 17 18 18 18 18 18 17 18 22 22 21 20 20 21 25 28 27 25 22 18 15 12 12 13 15 16 14 10 7 7 9 10 10 10 11
4 3 3 3 4 11 20 29 29 23 26 30 38 48 49 53 58 56 57 59 62 64 61 63 71 81 86 84 81 79 74 64 63 59 37 26 29 29 27 22 13 9 9 10 11 11 6 9 16 11 5 4 4 7 16 22 20 18 17 16 16 16 17 17 18 17 16 16 15 17 20 21 21 19 18 22 29 32 32 30 26 21 17 15 15 16 16 17 16 14 9 7 8 8 9 10 10
6 4 4 3 2 6 11 21 25 23 31 40 43 48 46 48 54 57 62 65 67 69 67 63 66 73 77 78 79 79 76 67 64 61 42 29 30 32 31 27 18 10 9 9 11 9 5 10 15 9 4 4 5 8 15 19 16 15 15 14 14 15 14 14 14 14 13 12 12 15 18 19 18 17 18 23 30 32 32 30 28 23 17 14 15 17 18 17 17 16 12 8 7 7 8 9 9
7 5 4 4 2 4 7 17 23 21 29 39 42 48 46 42 47 55 62 65 69 74 73 69 64 63 66 70 73 75 77 71 68 69 53 35 32 35 34 31 22 14 9 9 11 8 5 11 14 7 4 4 5 8 14 16 12 12 13 12 12 12 11 10 10 11 10 9 10 13 16 15 16 16 17 23 29 31 31 32 36 31 20 12 12 13 15 15 15 16 14 10 7 7 8 8 9
9 7 5 4 3 3 8 19 22 15 20 30 36 41 41 35 37 50 59 61 67 73 72 69 64 58 57 58 61 69 74 71 68 72 65 45 36 38 37 34 26 18 12 9 11 9 5 10 11 6 4 4 5 9 13 14 11 11 11 10 10 9 9 8 8 9 9 9 10 12 14 15 17 17 17 22 28 31 32 34 37 33 22 14 10 8 9 10 12 13 12 10 8 8 7 8 9
11 9 7 6 4 4 12 26 27 15 12 19 26 32 33 26 26 43 56 58 65 72 70 68 66 61 53 52 63 71 72 70 69 74 72 55 43 42 38 34 27 20 15 10 10 10 6 8 8 4 3 4 6 9 12 13 12 11 11 11 11 10 8 8 7 7 7 8 10 11 13 18 20 20 21 25 28 30 31 31 30 28 25 21 16 11 9 9 10 10 10 9 8 8 8 9 10
12 11 9 6 7 10 18 29 28 17 10 13 18 24 27 21 19 31 42 48 62 71 69 64 63 63 55 56 72 75 69 68 69 74 76 61 48 43 35 30 27 23 17 10 10 10 6 7 6 3 3 4 6 10 10 11 12 11 11 12 12 10 8 6 7 7 7 8 9 11 15 19 20 21 24 26 26 26 25 24 23 22 22 22 21 19 15 14 14 15 16 14 10 8 8 9 9
11 13 12 8 15 25 27 27 25 19 14 13 19 31 41 36 25 26 29 38 56 67 66 61 61 63 57 56 68 71 66 66 67 73 79 69 55 44 34 31 27 22 19 12 9 10 7 6 6 3 3 4 6 9 9 9 11 10 10 10 8 7 6 6 7 8 7 7 8 10 14 18 19 18 20 21 20 19 19 22 23 23 22 19 19 19 17 19 20 19 17 17 16 12 9 8 8
11 17 14 10 25 39 33 25 25 23 17 13 22 46 66 61 40 31 32 38 50 58 60 57 56 63 60 54 60 66 64 63 68 75 80 78 69 52 38 34 28 20 18 15 10 10 9 6 5 3 3 4 7 8 8 8 9 9 8 7 6 6 5 6 7 7 7 7 7 9 12 15 16 17 19 20 18 17 17 21 25 25 21 17 17 15 15 19 23 21 17 15 15 13 10 10 9
12 20 17 11 28 47 41 28 26 25 21 16 18 35 59 63 46 34 29 30 41 52 55 53 54 63 67 60 57 60 59 58 68 78 78 79 76 63 48 41 33 24 18 17 13 10 9 7 5 4 3 4 6 7 6 6 7 8 7 6 6 6 5 6 8 7 7 7 7 8 10 11 13 17 21 23 21 20 18 18 19 17 13 12 14 12 12 17 23 26 22 14 11 10 11 10 9
12 19 20 13 23 47 48 34 31 30 25 22 15 13 24 38 41 32 19 17 32 46 50 50 53 60 69 71 65 59 55 55 67 78 78 77 74 64 56 49 44 35 22 16 13 10 8 7 5 4 3 4 6 6 5 5 6 7 7 7 6 6 5 6 8 8 7 7 6 7 8 9 11 15 20 22 21 21 20 17 13 10 7 7 10 10 11 15 21 28 27 19 14 12 12 11 11
10 13 19 16 20 43 55 44 38 34 25 22 22 15 10 23 45 40 22 25 38 47 49 49 53 60 67 75 76 68 59 56 67 77 77 78 75 66 59 54 53 50 35 19 12 11 9 8 6 4 4 4 4 5 5 4 5 7 7 7 6 6 5 6 8 8 8 8 7 6 7 8 10 12 15 17 17 17 17 14 8 5 5 5 6 7 9 11 17 23 23 20 17 15 14 14 16
10 9 14 17 17 32 49 48 41 33 23 21 29 29 17 23 50 50 40 49 47 38 43 48 54 61 66 74 78 75 67 59 63 73 75 74 75 74 69 62 57 57 50 31 16 12 10 9 8 5 4 4 4 5 4 4 5 6 7 7 6 5 5 6 7 8 8 8 7 7 7 7 8 10 11 12 12 10 10 8 6 4 4 4 4 5 5 8 14 17 19 20 18 16 14 14 16
10 9 10 15 17 22 33 37 34 26 21 24 34 38 23 16 32 38 42 55 44 27 32 40 43 49 57 67 70 70 70 63 60 66 72 72 72 77 79 75 67 64 62 45 23 14 11 9 9 7 5 4 4 4 4 4 5 6 7 7 6 5 5 5 6 7 7 7 7 7 7 7 7 8 9 9 8 7 6 5 5 4 3 3 4 4 4 7 11 16 19 19 17 15 14 13 15
10 10 9 11 14 18 22 24 25 20 19 27 37 41 34 20 16 15 22 34 30 25 36 43 45 48 54 60 60 62 67 66 62 59 61 67 69 73 79 79 73 70 69 56 33 18 12 9 9 9 7 5 4 5 4 4 5 6 7 7 6 5 5 5 5 6 7 7 7 6 6 7 7 7 7 7 6 6 6 5 4 4 3 3 3 4 5 6 11 16 18 16 15 16 16 15 18
9 10 10 10 11 14 18 19 21 19 18 28 38 44 46 38 25 15 15 22 21 25 41 50 48 48 53 55 51 51 56 63 67 62 58 63 67 70 76 76 74 72 69 59 43 27 15 9 9 9 9 6 4 4 4 4 5 6 6 6 6 5 5 5 5 6 7 8 7 6 6 6 6 6 6 6 6 5 5 4 4 3 3 3 3 4 6 8 12 16 16 16 17 17 18 18 21
12 10 10 11 11 11 14 17 21 20 19 27 35 42 47 47 41 29 22 26 26 26 39 47 40 31 34 39 36 38 49 61 69 69 66 65 65 69 72 73 73 72 68 61 53 41 24 12 9 8 9 8 5 4 4 4 5 6 6 6 6 6 5 5 5 5 7 8 7 6 5 5 5 5 5 5 5 5 5 4 3 3 3 3 3 5 8 11 14 16 17 18 18 18 18 19 19
14 11 11 11 11 11 11 14 17 18 20 25 29 35 41 44 46 40 30 29 25 23 30 37 34 24 18 20 19 21 38 58 68 70 71 69 68 72 74 73 73 71 70 67 61 55 39 19 10 8 8 8 7 5 4 4 5 6 5 5 6 6 5 5 5 5 6 7 8 7 5 4 4 5 5 5 5 4 4 3 3 3 3 3 4 7 11 14 16 18 18 18 18 17 17 17 16
16 13 12 12 12 12 11 12 14 14 17 20 22 30 38 42 45 42 36 30 19 13 18 21 22 19 12 10 9 8 21 47 63 65 66 66 69 75 75 73 75 74 73 71 64 59 47 25 12 8 7 8 8 6 4 4 5 6 6 5 5 5 5 6 6 5 6 7 8 7 6 5 4 4 4 4 4 4 3 3 3 3 3 3 5 9 13 15 17 18 18 18 18 17 16 16 15
20 19 19 19 17 15 14 13 14 12 12 15 16 21 30 37 37 32 33 33 19 12 14 13 12 12 8 5 6 7 12 34 57 64 62 63 68 76 76 73 77 78 76 71 61 53 42 24 13 9 7 8 8 7 5 4 5 5 6 5 5 6 5 5 6 6 6 6 7 8 7 5 4 4 4 4 3 3 3 3 3 3 3 3 6 10 13 15 17 18 18 18 17 17 16 15 15
29 31 31 30 24 19 18 16 16 15 12 11 13 16 21 27 28 27 32 34 24 15 13 12 11 10 9 6 6 8 7 21 52 70 69 66 69 76 78 76 78 80 81 76 64 53 42 25 13 9 8 8 7 7 6 5 4 5 5 5 5 6 5 5 6 6 6 6 7 8 8 7 5 4 4 4 3 3 3 3 3 2 3 3 6 10 12 14 17 18 18 17 17 17 17 17 17
43 40 38 41 37 27 20 18 18 21 19 14 13 17 16 16 22 27 31 32 25 16 13 14 13 10 10 8 6 8 5 11 39 63 70 69 70 74 78 79 79 80 82 79 68 59 48 31 17 11 9 8 8 8 7 6 5 4 4 5 5 5 5 4 5 6 6 6 6 7 7 7 6 5 5 4 3 3 3 3 3 3 3 3 6 9 11 13 16 18 17 17 18 19 19 19 19
55 48 41 44 46 36 27 24 21 22 23 19 18 18 14 10 13 16 22 24 20 16 18 20 19 17 16 12 10 12 10 8 19 36 54 65 64 65 73 78 79 79 79 77 71 62 50 36 25 17 11 9 8 8 8 8 6 5 4 4 5 5 5 4 4 5 6 7 6 6 7 7 7 6 5 4 4 3 3 3 3 3 3 3 5 8 11 12 15 17 17 17 19 19 20 20 20
Wind_Speed
5 4 4 3 2 3 3 4 6 6 7 8 8 8 10 12 7 1 11 17 16 15 13 15 13 10 9 8 8 8 8 8 8 9 8 7 8 7 6 5 3 3 4 5 5 6 6 6 7 7 9 9 10 10 10 11 11 11 11 12 12 12 12 12 12 12 12 12 12 12 12 12 12 12 12 12 12 11 10 10 9 9 8 7 7 7 8 8 9 9 9 9 10 10 10 9 8
5 4 4 4 4 5 6 6 7 7 8 9 9 9 12 11 5 5 14 18 17 14 13 13 11 10 9 9 8 7 8 9 9 9 8 7 9 8 7 5 4 4 4 5 6 6 6 7 7 8 9 10 10 11 11 12 12 12 12 12 12 12 12 12 12 12 12 11 12 12 12 12 12 11 11 11 11 10 9 9 8 8 7 6 7 7 7 8 9 9 9 9 10 10 10 9 9
5 4 4 6 7 8 8 9 9 9 9 9 9 10 13 10 4 7 16 18 16 14 13 13 10 9 9 8 7 6 7 10 9 7 8 8 9 9 7 5 4 4 4 5 6 7 7 7 8 9 9 10 10 11 11 12 12 12 12 12 12 12 12 12 12 12 12 11 11 11 11 11 11 11 11 10 10 9 8 8 7 7 6 6 6 6 7 8 9 9 9 9 10 10 10 10 9
6 6 7 9 10 11 11 12 11 10 10 10 9 10 12 9 3 10 17 16 15 14 13 12 10 9 9 7 6 6 6 10 10 6 6 9 9 9 8 6 5 4 4 5 6 8 8 8 8 9 10 10 10 10 11 12 12 12 11 11 11 12 11 12 12 11 11 11 10 10 10 10 10 10 10 9 9 8 7 7 7 7 6 6 6 6 7 8 8 8 8 9 8 9 9 10 10
7 8 10 11 12 13 13 13 11 10 11 10 11 12 10 6 3 13 18 15 14 13 11 11 10 9 8 7 6 6 6 8 11 7 4 8 11 8 9 7 5 5 4 6 7 8 8 8 9 9 10 10 10 10 10 11 11 11 11 11 11 11 11 11 12 11 11 10 10 9 10 9 9 9 8 8 8 7 6 6 6 6 6 6 6 7 7 8 8 8 8 8 7 8 9 10 11
8 9 11 12 13 13 12 12 12 10 11 11 12 13 7 2 10 17 17 15 14 13 11 10 11 9 7 5 6 7 5 6 10 9 3 7 12 9 8 7 5 5 5 6 7 8 8 9 9 10 10 10 10 9 10 10 10 10 10 10 11 11 11 11 11 11 11 10 10 10 10 9 9 8 8 7 7 6 6 6 6 6 6 6 6 8 8 8 8 8 7 7 7 7 8 10 11
9 10 11 12 11 11 11 10 11 10 11 12 11 12 4 10 16 18 17 16 15 13 10 10 12 10 7 6 8 7 5 6 8 11 5 6 13 9 7 8 6 5 5 7 7 8 8 9 10 10 10 10 10 10 10 10 10 10 10 11 11 11 12 12 11 11 11 11 10 10 10 9 9 9 8 7 7 7 6 7 7 7 7 7 8 9 9 9 9 8 7 7 7 7 9 10 10
9 10 10 10 9 9 8 8 9 10 12 12 11 9 4 14 18 17 16 16 17 14 10 10 13 11 8 7 8 8 7 6 8 11 7 7 13 10 7 7 6 6 6 7 8 8 8 9 9 10 10 10 10 10 10 10 10 10 10 11 11 12 12 12 11 11 11 11 11 11 11 10 9 9 9 8 8 9 8 8 8 8 8 9 10 10 10 10 9 8 8 8 8 8 9 10 10
10 10 8 8 8 6 6 6 8 10 13 13 12 9 11 18 18 16 14 14 16 15 12 10 11 10 10 10 8 9 9 6 8 11 8 8 13 11 8 7 6 6 6 8 8 9 9 9 9 10 10 10 10 10 10 10 10 10 11 11 12 12 12 12 11 10 11 11 11 12 11 11 10 10 10 10 10 10 9 9 9 9 10 10 10 11 10 10 9 9 9 8 8 9 10 10 11
10 9 7 7 7 5 5 7 8 11 15 12 11 8 16 21 19 17 14 13 13 13 12 10 10 9 9 12 10 10 10 7 8 9 8 10 12 11 9 7 5 4 6 9 9 9 9 9 10 10 10 10 10 10 10 10 10 10 11 11 11 12 12 11 11 10 11 11 11 12 11 11 11 11 11 11 11 10 10 10 10 10 11 11 11 11 11 10 9 9 9 9 9 10 10 11 11
10 9 7 7 7 6 6 8 9 13 15 10 7 4 18 21 19 17 14 12 11 11 11 10 11 10 8 11 11 11 10 8 8 8 9 10 11 11 10 8 6 4 6 9 10 10 10 10 10 10 10 10 10 10 10 10 10 11 11 11 11 11 11 10 10 10 10 11 11 11 12 12 12 12 12 11 11 10 10 11 11 11 11 11 11 11 11 10 9 9 9 9 10 10 10 10 11
10 9 7 7 6 6 7 9 10 15 13 8 5 11 20 18 17 16 14 12 11 10 10 10 10 10 8 11 12 11 10 8 7 8 10 10 10 10 9 9 7 5 6 8 10 10 10 10 11 10 10 10 10 9 9 10 10 10 10 10 11 10 10 10 10 10 10 11 11 11 12 12 13 13 12 11 11 10 11 11 12 11 12 12 12 12 11 10 9 8 9 9 10 10 11 11 12
10 9 7 7 6 6 8 8 10 15 11 6 8 18 20 16 17 16 15 12 12 11 9 9 9 9 8 11 12 11 9 8 7 7 9 10 10 11 9 8 7 6 7 8 10 10 11 11 12 11 11 11 10 10 10 10 10 10 10 10 10 10 10 10 10 11 11 11 11 11 12 13 14 14 13 12 11 11 11 11 11 11 11 11 11 11 11 10 9 9 9 10 11 11 11 12 13
10 9 7 7 6 6 8 8 8 12 11 2 13 21 20 18 17 16 16 13 12 11 9 9 8 8 8 10 12 12 10 7 7 7 9 10 9 10 9 7 7 7 7 9 10 10 11 12 12 12 12 11 10 10 10 10 10 10 10 10 10 10 10 10 11 12 12 12 12 12 13 14 15 15 14 13 12 12 11 11 11 11 11 11 11 12 12 12 11 11 11 11 12 11 11 12 13
10 9 8 7 7 7 7 8 6 9 11 2 15 20 19 19 18 16 15 12 11 11 10 8 7 7 6 8 10 11 11 8 6 6 8 10 9 9 9 7 7 7 8 10 10 11 12 12 13 12 12 11 10 10 11 11 11 11 11 11 11 11 11 12 12 12 12 13 13 14 15 15 16 15 15 14 14 13 13 12 12 12 12 12 12 12 13 13 13 13 13 12 12 11 12 13 13
11 10 8 6 7 8 7 7 5 6 8 4 15 17 17 17 16 15 14 13 12 10 10 9 7 7 5 7 8 10 12 10 6 6 8 9 10 10 9 7 7 7 8 9 11 11 12 12 13 13 12 12 11 11 11 12 12 11 11 12 12 13 13 13 13 14 14 13 14 15 16 16 16 16 15 15 15 14 14 14 14 14 13 13 13 13 14 14 14 13 13 12 12 11 12 13 13
13 11 8 6 7 8 7 6 5 4 5 4 11 11 13 14 14 14 13 13 12 11 11 10 10 8 5 6 7 8 11 10 7 7 7 9 10 10 9 7 7 7 8 9 10 11 12 12 13 13 13 12 12 12 12 12 12 12 12 13 14 14 14 14 14 14 15 15 15 16 17 17 17 16 16 16 16 16 15 16 15 15 15 15 14 14 14 14 13 13 12 12 12 12 12 13 13
14 11 8 7 8 9 7 5 4 4 2 1 3 6 10 13 13 14 15 13 11 11 11 11 10 9 6 6 7 7 10 10 8 7 7 9 10 10 9 8 7 7 8 9 10 10 11 12 13 13 13 13 12 12 13 13 13 13 12 13 14 15 15 15 14 15 15 16 17 17 18 17 17 17 17 17 18 17 17 16 16 16 15 15 14 14 13 13 13 12 12 12 12 12 12 13 13
15 12 9 9 9 9 7 4 3 4 1 1 3 7 11 13 13 14 16 14 11 11 11 12 10 8 7 8 7 6 9 10 9 7 7 9 10 9 9 9 8 7 8 9 10 11 11 12 13 12 13 13 12 13 13 13 13 13 13 14 15 15 15 15 15 15 16 17 17 18 18 18 18 18 18 18 18 17 17 16 16 16 16 15 15 15 14 14 13 12 12 13 13 13 12 12 13
15 13 10 11 11 9 7 4 2 3 2 3 3 7 9 11 10 11 15 15 13 12 12 14 12 9 9 9 7 7 9 9 8 8 7 8 9 9 8 8 9 8 8 8 10 11 11 12 12 13 13 12 13 13 14 14 13 13 13 14 14 15 16 16 15 16 16 17 17 18 18 18 19 19 18 18 18 17 17 16 16 16 16 16 15 15 15 14 13 12 12 12 13 12 11 12 13
15 14 11 12 12 11 9 7 4 1 3 6 7 5 5 8 8 10 14 14 13 13 13 13 12 10 10 10 9 8 10 9 8 8 7 8 9 9 9 8 8 8 8 8 10 11 11 12 12 13 13 13 13 13 14 14 13 13 13 13 14 14 15 16 16 16 16 17 17 18 18 18 18 19 19 18 18 18 17 17 17 16 17 16 16 15 15 14 13 13 13 12 12 12 11 12 13
16 15 13 13 13 12 10 8 6 3 3 7 8 6 5 9 9 10 11 12 15 14 13 13 12 10 8 9 9 9 10 9 8 8 7 7 8 9 9 9 8 8 8 8 10 11 11 12 12 13 13 13 13 14 15 14 14 13 13 13 13 14 14 15 16 17 17 17 18 18 18 18 18 19 19 19 19 18 18 17 17 17 17 17 16 15 15 14 13 13 13 13 13 12 12 13 14
17 17 16 14 14 13 11 9 7 5 3 4 4 7 8 9 10 11 8 11 16 14 13 14 12 10 7 6 8 8 10 10 8 7 7 7 8 9 9 9 9 8 8 8 9 11 11 11 12 12 13 14 14 15 15 15 14 13 13 12 13 13 14 15 16 17 17 17 18 18 18 18 18 19 19 18 18 18 18 17 17 17 17 16 16 15 15 14 14 14 14 15 14 14 14 14 14
19 20 18 14 15 15 13 11 8 6 4 3 1 3 5 4 8 10 8 13 18 14 13 14 12 11 8 7 6 7 9 10 8 7 7 7 8 9 9 9 8 8 8 8 9 11 11 11 12 12 13 15 15 16 16 15 14 13 13 12 12 13 13 14 15 17 17 17 18 18 18 18 18 18 18 18 17 17 17 17 17 17 16 16 16 16 16 16 15 16 16 17 16 16 16 15 15
22 21 18 14 15 16 15 13 9 7 5 5 3 3 5 3 4 5 8 14 16 13 13 13 12 10 9 8 6 6 8 9 9 8 7 7 7 8 9 9 9 8 8 9 9 11 12 11 12 12 14 16 16 16 15 14 14 13 13 12 12 13 14 14 15 17 17 17 17 17 17 17 17 16 16 16 16 16 16 16 16 16 16 16 16 16 18 18 17 17 18 18 18 18 17 16 15
23 21 18 14 14 15 15 14 11 8 5 5 5 4 6 5 4 3 6 12 13 13 13 13 12 10 9 9 7 7 7 8 9 8 7 7 8 8 9 9 9 9 8 9 8 10 12 12 12 13 15 16 17 16 15 14 13 13 13 12 12 13 14 15 16 16 17 17 17 16 16 16 15 15 15 15 15 15 15 15 16 16 16 16 16 17 18 18 18 17 18 18 19 18 18 17 16
23 20 17 14 13 13 12 13 12 9 6 5 7 6 6 5 6 8 7 8 12 13 13 13 11 9 9 9 9 7 6 7 8 9 8 7 8 8 9 10 10 10 9 9 8 9 12 13 13 14 16 16 16 15 14 13 12 13 13 12 12 13 14 15 16 16 17 17 16 15 14 15 14 14 14 14 14 14 14 15 15 15 16 16 16 17 18 18 18 17 17 18 18 18 18 18 17
19 18 17 15 12 11 10 12 12 10 7 7 8 8 8 9 10 11 10 9 11 12 12 12 10 8 8 9 9 8 6 6 7 8 8 7 7 8 9 10 11 11 9 9 8 9 12 14 13 15 16 17 16 15 14 13 12 13 13 12 12 13 13 14 15 16 16 16 15 14 13 13 13 13 12 13 13 13 14 14 14 15 15 16 16 17 17 17 17 17 17 17 17 18 18 19 19
16 18 18 15 13 11 12 13 13 12 10 8 8 7 7 9 11 11 11 11 11 11 11 10 9 8 8 8 8 8 6 6 6 6 7 7 7 8 9 10 12 11 10 9 9 8 12 15 15 16 17 17 16 15 13 12 12 12 13 13 12 12 13 14 15 15 15 15 14 14 13 12 12 11 11 12 12 12 13 13 13 14 15 15 15 16 17 16 16 16 16 16 16 17 18 18 19
16 17 17 16 15 14 15 16 16 15 12 9 8 6 6 7 8 11 12 11 11 10 8 7 8 8 7 7 7 7 6 6 5 5 6 7 8 8 9 11 13 13 11 10 9 9 12 16 16 17 18 17 16 15 13 12 12 12 13 13 12 12 13 14 15 14 14 14 13 13 12 11 10 10 10 10 11 12 12 12 13 13 14 15 15 15 15 15 15 15 15 16 16 16 17 18 19
15 14 14 14 16 16 17 18 17 16 14 12 9 7 7 7 8 11 12 11 10 9 6 5 6 6 5 6 6 7 6 5 4 4 5 7 8 8 9 11 14 14 12 10 9 9 12 17 18 17 18 18 16 15 14 12 12 13 14 14 13 13 13 14 15 14 14 13 13 12 11 10 10 9 9 9 11 12 12 12 12 13 14 14 14 14 14 14 14 15 15 16 16 15 15 16 17
16 15 12 11 16 19 18 18 18 17 15 13 11 9 8 9 9 10 11 10 10 9 7 5 5 4 4 4 5 6 6 4 4 4 4 6 7 7 8 11 13 14 13 11 10 10 12 17 19 18 19 18 16 15 14 12 12 12 14 14 14 13 13 14 15 15 13 12 11 11 11 10 9 8 8 8 10 12 12 12 12 12 13 13 13 13 13 13 13 14 15 15 15 16 15 15 16
18 17 14 12 15 17 18 19 19 17 16 15 12 10 10 10 10 10 11 10 10 9 8 6 5 4 4 3 4 6 6 5 5 4 5 6 7 6 7 10 13 14 13 12 11 10 12 17 20 19 19 19 17 15 14 13 12 12 13 14 14 13 13 14 14 14 13 12 11 10 9 9 8 8 7 8 10 11 12 12 12 12 13 12 12 12 12 12 12 13 14 14 15 16 16 16 16
20 19 19 18 17 16 17 19 19 18 18 17 15 13 12 12 11 10 10 10 10 9 8 7 6 5 5 4 4 5 7 8 7 6 6 8 8 7 6 8 12 13 13 12 11 10 11 17 21 20 20 19 17 16 14 13 12 12 13 13 14 13 12 13 13 13 13 12 10 9 9 8 8 7 8 8 10 11 11 11 12 12 12 12 12 11 11 12 12 13 13 14 14 15 16 16 17
22 22 23 23 22 21 20 20 20 20 20 19 17 15 14 12 12 11 10 10 9 9 8 7 7 6 5 5 5 6 7 9 8 7 7 8 8 7 6 8 11 13 13 12 11 10 10 16 21 21 22 20 18 17 15 13 12 13 13 13 13 13 12 12 12 12 12 11 10 10 9 9 8 8 8 9 10 11 11 11 12 12 12 13 13 12 11 11 12 12 13 14 14 14 15 15 16
24 26 27 27 26 25 24 22 22 22 21 20 19 18 16 14 13 12 11 10 9 8 8 8 8 8 6 6 7 7 7 8 8 7 7 8 8 7 7 8 10 13 13 12 12 11 11 16 20 21 23 22 19 17 15 14 13 13 13 13 13 12 12 11 11 11 11 10 9 9 9 8 8 8 8 9 10 11 11 12 13 13 13 13 13 12 12 11 11 11 12 12 13 13 13 13 14
25 26 26 26 25 25 25 24 23 22 20 19 20 20 19 17 16 14 12 11 9 6 7 9 10 10 8 8 8 8 8 7 7 8 8 8 7 7 7 7 8 12 14 12 12 12 13 19 21 22 24 23 20 19 17 16 15 14 14 13 13 13 12 12 11 11 11 10 9 8 8 8 8 8 9 10 11 11 11 11 13 13 13 12 12 12 12 11 11 10 11 11 11 11 12 12 12
26 25 24 23 23 25 26 25 24 22 21 21 22 21 21 20 19 17 14 12 10 6 5 7 10 11 11 10 9 9 7 5 5 7 8 8 7 6 6 7 7 11 14 13 13 12 14 20 22 22 25 24 22 21 19 17 16 15 15 15 14 14 13 12 11 11 11 10 8 8 8 8 8 8 9 10 11 11 11 12 13 13 13 13 12 12 11 11 11 10 10 10 10 9 9 10 10
27 25 22 20 21 25 27 26 26 24 22 24 24 24 24 23 22 20 17 15 12 7 5 7 9 12 13 12 11 10 8 5 6 8 8 9 8 7 7 7 8 10 13 13 12 12 15 21 22 23 26 25 23 22 19 17 14 13 13 14 14 13 13 12 11 10 10 9 8 8 8 8 8 8 9 10 10 10 11 11 12 13 13 13 13 12 12 11 11 10 10 10 9 9 8 8 8
26 23 21 19 22 26 27 27 27 25 23 25 27 27 27 26 24 22 19 17 14 9 6 6 9 12 14 14 12 11 9 7 8 10 10 9 9 8 7 8 8 9 11 12 12 11 15 20 22 25 27 25 23 22 19 16 13 12 12 12 12 12 12 12 11 10 10 10 9 9 8 8 8 8 9 10 10 10 10 11 12 13 13 13 13 13 13 12 11 10 10 9 9 8 8 8 8
25 21 19 20 23 25 26 28 28 26 24 25 27 28 27 25 24 23 19 17 14 9 7 8 9 11 13 13 11 11 10 9 9 10 11 10 10 10 9 9 8 9 11 13 13 12 15 20 23 26 29 26 24 21 19 16 13 11 11 11 10 11 11 12 12 11 10 10 10 9 9 8 9 9 10 10 10 10 10 11 11 12 13 13 12 12 12 12 11 10 9 9 8 8 8 8 7
25 21 19 21 24 25 28 30 30 28 26 25 27 27 25 24 24 24 22 19 15 10 9 9 10 10 11 12 12 12 11 10 10 10 11 12 12 11 9 8 8 9 11 14 15 13 14 19 23 27 29 27 24 22 19 17 15 14 13 14 14 14 13 13 12 11 10 10 10 10 9 9 9 10 10 10 10 10 10 10 10 10 11 12 12 11 11 11 11 10 9 8 8 8 8 7 7
26 22 21 24 27 30 32 32 32 30 28 28 28 26 23 22 23 23 22 20 18 13 11 10 10 10 11 12 13 13 11 9 10 11 12 12 12 11 9 8 9 10 12 14 15 13 13 16 21 26 28 27 24 22 20 18 17 17 17 17 17 16 15 13 12 11 10 10 10 11 10 10 10 10 10 10 10 10 10 10 9 9 10 10 11 10 11 11 10 9 8 7 8 8 7 7 6
26 24 25 28 32 35 35 34 33 31 29 29 29 27 25 23 22 22 22 21 19 15 12 11 10 10 11 12 15 15 12 10 10 12 14 13 12 11 10 9 10 11 11 13 14 14 14 15 20 25 28 26 24 23 21 19 18 18 18 17 16 15 14 14 13 13 12 11 11 11 11 11 10 11 10 9 9 10 10 10 9 9 9 9 9 10 10 10 9 8 7 7 7 7 7 7 6
27 27 29 30 35 38 37 36 34 33 30 29 30 30 26 23 23 25 24 22 20 16 12 10 10 11 12 12 15 17 15 12 11 13 15 16 14 13 12 11 10 10 10 12 15 16 15 16 19 24 27 26 24 23 21 21 19 19 18 16 15 15 15 14 13 13 13 12 12 12 12 11 11 11 10 9 9 9 9 10 9 8 8 8 9 9 9 9 8 8 7 6 7 6 6 6 6
29 32 32 32 36 41 39 37 36 34 32 29 29 29 27 25 25 25 22 20 16 13 12 11 11 12 12 12 13 15 16 14 12 13 15 17 17 16 15 14 11 9 10 12 14 16 16 15 18 23 26 25 24 23 21 21 20 18 16 15 15 15 16 15 14 13 13 13 13 13 13 12 11 11 10 10 9 9 8 8 9 8 7 7 8 8 8 8 8 7 7 6 6 6 5 5 6
30 34 34 34 38 42 42 40 38 37 34 30 28 27 26 25 26 24 19 14 11 10 11 12 11 12 12 12 12 13 15 16 15 15 16 17 17 17 15 14 12 10 10 11 12 14 16 15 16 21 25 26 24 23 21 20 19 17 16 15 15 16 16 16 16 15 14 13 13 13 13 13 12 11 11 10 10 9 8 7 8 8 7 7 8 8 8 8 8 7 6 5 5 5 5 5 6
30 33 36 37 38 42 44 42 41 39 35 31 30 29 28 26 25 21 15 14 13 10 9 11 12 13 14 14 13 13 15 17 17 17 16 16 14 14 13 13 12 10 8 9 10 13 15 16 17 19 23 25 24 23 22 20 19 17 15 15 15 16 16 16 16 16 15 14 14 14 14 14 13 12 12 11 10 9 8 7 7 7 8 8 8 8 9 9 8 7 6 5 5 5 5 6 6
31 32 35 38 40 42 44 44 42 39 34 32 32 32 32 29 26 22 18 17 14 8 7 11 13 14 15 16 16 15 16 17 18 19 17 15 13 13 12 12 12 10 8 9 11 12 15 17 18 18 21 24 25 24 22 20 19 17 16 15 15 15 16 16 16 15 14 14 14 14 14 14 14 13 12 11 10 9 8 7 8 8 8 9 9 9 9 9 9 8 7 6 5 5 6 6 7
33 33 35 38 40 41 43 43 42 39 34 33 34 34 34 31 27 23 21 20 16 12 10 11 12 13 15 17 18 17 18 18 18 19 18 16 15 14 14 14 13 12 11 11 11 12 14 17 19 18 19 23 25 24 23 21 20 19 17 16 16 15 15 16 15 15 14 13 13 14 14 13 13 12 11 11 10 9 8 8 8 9 9 10 10 10 10 10 10 9 8 7 6 6 6 6 6
35 35 35 36 39 40 41 41 41 38 35 36 38 37 37 34 27 22 21 23 21 17 15 13 13 14 15 16 14 14 16 18 19 18 18 18 17 16 15 15 14 14 13 13 13 13 14 16 19 20 20 21 24 25 23 22 21 20 18 17 16 15 15 15 15 15 14 13 13 13 13 13 13 12 11 11 11 10 9 9 9 10 10 10 11 11 11 11 11 10 9 8 7 6 6 6 5
36 37 36 37 38 39 40 41 41 39 38 40 41 40 40 37 30 25 24 25 24 21 20 19 18 19 20 17 12 9 12 16 18 18 18 18 18 17 16 15 15 15 15 14 14 14 14 16 18 21 21 22 24 25 24 23 22 21 19 18 17 16 15 15 15 15 14 14 14 13 13 13 13 12 12 12 11 11 10 10 10 10 10 11 12 12 13 12 12 10 9 8 7 6 6 5 5
37 38 38 39 38 38 38 40 41 42 42 44 43 42 41 38 34 32 29 27 27 25 26 26 23 23 24 23 18 13 10 12 16 18 19 19 19 18 17 16 15 14 14 14 14 14 15 16 19 21 23 23 23 25 25 25 23 21 20 19 18 17 15 15 15 15 15 15 15 15 14 13 13 12 12 12 12 11 10 10 10 10 11 11 13 14 14 13 12 11 9 8 7 7 6 5 5
38 39 38 38 37 38 38 39 40 42 43 44 43 43 43 41 39 37 34 32 29 28 29 29 27 26 26 25 22 19 13 11 14 18 20 21 20 19 18 17 15 15 15 15 15 16 16 17 19 21 23 24 24 25 26 26 25 23 21 19 19 18 17 16 16 16 16 16 15 15 15 14 14 14 13 13 12 11 11 11 11 11 11 12 14 15 15 14 13 11 10 9 8 7 7 6 5
37 37 37 36 37 38 38 38 39 40 41 42 41 42 44 45 42 39 38 36 33 31 31 29 28 28 27 24 22 21 18 15 14 15 17 20 20 19 18 17 16 16 16 17 17 17 16 15 17 21 23 25 26 27 28 28 27 25 23 21 20 19 18 17 17 16 16 16 16 15 16 16 16 15 15 14 14 13 12 12 12 11 11 13 14 15 14 14 13 12 11 10 9 8 7 6 6
36 36 37 36 38 39 39 38 39 38 39 39 38 38 41 44 44 43 42 41 38 35 33 30 30 30 28 25 24 22 20 17 15 12 13 17 19 19 19 18 18 18 18 18 18 16 15 14 15 19 23 25 27 27 28 28 28 27 26 24 22 21 20 18 17 17 16 16 16 16 16 17 17 16 16 15 15 14 13 12 12 11 11 12 14 15 14 14 14 13 12 11 10 9 8 7 6
36 37 38 37 38 40 40 40 40 39 38 37 36 35 38 42 45 45 45 43 40 38 34 31 30 30 29 27 25 23 20 19 18 15 12 15 17 19 20 20 20 21 21 20 19 17 15 13 14 17 21 23 24 25 26 27 28 29 27 26 24 22 21 20 18 17 17 17 16 16 17 17 17 17 16 15 15 14 13 13 12 11 11 11 13 14 14 14 14 14 13 12 11 10 8 7 6
38 39 40 39 39 40 40 40 41 41 40 38 35 35 36 38 42 43 44 43 40 37 34 32 31 30 29 27 25 23 21 20 21 20 17 16 17 17 20 22 23 23 22 21 19 18 16 13 13 15 18 20 22 25 26 27 28 29 28 27 26 25 23 21 20 19 18 18 17 17 17 16 16 17 16 16 15 14 13 13 12 11 11 11 13 14 15 15 15 15 14 13 12 11 9 8 7
Wind_Direction
188 195 192 199 222 250 268 285 293 300 307 308 308 307 302 307 325 277 161 149 143 145 147 144 132 118 112 108 102 93 92 86 84 88 95 93 82 60 50 69 74 80 82 92 97 96 97 97 103 104 105 107 108 108 108 110 110 110 107 103 100 100 100 100 101 103 106 107 108 109 109 109 108 108 107 108 109 109 107 107 108 109 106 102 97 90 87 91 92 88 84 78 76 75 71 68 63
202 208 214 229 245 259 272 283 289 296 305 305 308 306 304 308 300 184 158 145 141 139 138 142 129 116 112 111 106 94 97 90 81 81 91 90 86 77 60 68 75 86 88 88 94 97 99 102 106 107 109 110 112 112 112 114 112 109 105 103 103 103 103 102 104 106 108 109 111 113 113 111 109 107 106 105 105 105 105 107 109 110 109 103 97 92 93 95 93 87 82 77 74 74 74 73 70
221 231 244 253 258 263 270 277 287 295 300 302 305 303 307 305 258 173 153 143 138 137 134 142 138 124 114 108 104 101 105 93 84 77 86 84 82 86 79 78 85 89 94 93 97 98 103 108 111 111 112 113 114 115 114 114 111 109 105 104 104 103 103 105 107 110 111 113 116 117 114 110 108 106 104 102 103 105 106 109 113 114 111 104 98 94 95 96 94 87 80 76 74 73 73 73 74
241 254 260 262 264 265 270 276 284 290 291 299 309 304 308 309 245 162 148 140 137 136 132 141 142 128 108 90 96 102 102 94 91 77 73 85 81 85 91 92 95 98 93 92 97 101 108 114 115 113 114 115 114 116 114 113 112 110 107 106 105 105 105 107 108 110 112 112 113 113 110 108 107 106 104 103 103 106 109 113 116 115 110 106 100 95 95 96 96 91 83 77 74 72 70 70 71
255 264 267 267 268 269 272 277 283 287 289 297 307 306 306 309 186 151 143 138 134 130 131 137 139 139 111 82 90 85 82 86 95 92 56 87 89 83 96 101 102 102 91 90 99 104 113 118 117 117 117 118 117 117 115 115 117 115 112 111 111 109 107 107 108 109 110 110 111 112 112 113 112 109 106 104 104 106 111 114 114 111 109 108 104 100 99 99 100 95 84 77 73 68 65 70 71
261 267 272 273 273 271 273 278 282 284 291 292 299 309 303 178 147 144 140 138 133 128 131 128 127 138 125 99 94 77 68 66 83 98 71 88 96 91 99 106 108 104 94 95 102 108 116 120 119 120 121 121 120 119 118 119 120 120 121 119 115 112 110 110 110 111 112 114 116 116 117 118 117 114 111 111 111 109 109 109 107 105 106 107 104 103 102 102 104 97 84 77 73 67 66 72 75
261 268 275 279 277 271 271 272 280 282 286 288 295 310 289 151 141 142 143 139 134 134 133 128 127 129 125 103 93 83 71 54 65 89 91 97 99 99 105 109 115 105 99 101 104 109 117 122 123 123 123 124 122 120 120 121 123 125 126 122 119 118 116 114 112 114 115 117 117 116 118 118 118 118 118 119 115 110 106 102 100 101 104 106 106 105 103 102 103 95 83 77 74 71 72 75 77
261 269 277 280 275 267 268 270 286 286 286 290 294 302 202 153 142 142 145 141 136 137 136 137 133 125 120 101 93 92 80 61 60 79 92 102 100 104 109 112 117 109 106 106 108 114 120 125 125 123 124 124 122 121 122 124 128 128 126 123 123 122 119 117 117 118 117 114 112 112 113 115 118 119 119 118 111 105 101 98 100 104 107 108 106 104 102 102 100 93 86 82 78 75 77 79 80
263 271 275 275 269 260 264 286 298 291 293 293 290 276 186 156 144 144 145 146 139 137 142 140 122 111 110 100 94 93 85 72 66 77 89 96 101 107 110 110 111 113 114 112 114 119 124 126 123 122 124 125 122 123 125 128 131 128 126 126 125 123 121 121 122 119 115 111 108 108 109 113 116 116 115 112 107 103 100 99 103 107 108 105 102 100 100 98 94 91 90 88 84 81 81 83 82
263 267 270 271 270 264 268 302 305 300 303 294 294 267 177 156 147 147 144 144 138 133 135 130 107 97 98 97 90 82 81 70 69 81 89 92 103 110 113 112 106 108 116 118 120 123 127 127 123 124 125 123 123 126 129 131 130 128 127 126 122 120 121 122 121 116 112 109 107 107 109 111 111 110 109 107 106 103 101 100 105 108 106 102 100 98 97 94 91 91 91 90 89 88 86 83 83
258 257 258 261 268 272 284 310 307 310 311 295 301 206 168 156 147 145 144 139 133 128 125 122 110 100 95 96 91 80 75 64 64 79 89 96 106 114 117 116 115 108 113 121 124 126 129 128 125 126 126 125 125 128 131 131 129 129 128 123 118 116 117 117 115 111 109 108 107 108 110 108 107 105 104 104 104 103 101 100 103 105 104 102 101 100 98 97 96 96 95 95 94 92 89 86 87
251 248 251 254 267 283 297 316 311 318 318 284 253 169 162 155 146 141 145 142 134 131 122 119 108 104 105 101 96 87 78 64 59 71 88 101 111 117 118 119 121 115 116 123 125 128 130 129 127 128 128 126 127 131 133 130 128 127 124 118 114 113 112 111 111 110 108 108 107 109 109 106 104 102 101 102 101 102 103 100 100 102 103 102 101 101 101 101 99 98 98 97 94 91 89 88 87
246 246 247 250 271 291 309 323 314 326 329 272 192 159 153 153 150 145 150 148 140 135 123 122 114 113 116 108 105 97 86 68 59 67 84 100 114 119 120 121 121 118 119 123 127 131 132 131 130 130 130 131 133 137 135 128 124 123 120 116 113 112 112 111 111 109 108 108 109 110 107 104 101 100 100 101 100 100 101 100 99 100 101 102 102 102 102 102 101 100 98 97 95 91 88 86 85
246 246 242 246 264 287 314 327 318 337 342 281 161 153 150 154 157 152 151 148 139 135 130 136 131 123 121 118 118 112 102 83 64 69 85 96 110 118 122 124 121 118 118 124 130 135 135 133 132 133 132 134 138 138 132 125 122 121 119 117 116 116 114 112 111 110 110 109 109 107 104 101 99 100 101 101 101 101 102 102 103 102 103 104 104 103 102 103 104 103 101 100 99 95 89 84 83
244 243 238 239 251 275 307 324 324 346 350 63 149 153 154 157 162 154 149 147 140 138 141 145 131 111 112 121 122 119 112 100 78 72 89 99 111 119 123 124 120 115 116 126 133 138 138 134 134 134 133 135 137 133 127 123 121 118 116 118 119 117 114 110 110 109 108 106 106 104 101 99 99 101 103 104 104 103 105 106 106 106 106 105 103 102 102 103 103 102 101 102 100 94 87 82 81
239 240 236 233 244 266 295 315 324 355 1 94 146 154 158 161 161 154 153 153 147 145 145 143 133 109 103 118 121 121 115 108 98 84 92 106 117 124 126 123 118 111 114 126 134 139 139 136 135 133 133 134 133 130 125 124 121 117 116 118 117 114 111 109 109 108 107 105 103 101 99 99 100 102 103 104 104 105 105 104 103 104 104 102 100 101 101 102 102 101 100 100 98 93 88 84 81
234 235 234 229 238 254 277 301 315 349 14 104 147 154 165 168 160 160 165 159 151 149 147 146 139 120 111 119 120 125 119 116 110 100 99 107 118 124 128 125 119 113 113 125 133 140 141 138 136 133 133 133 132 128 124 124 121 119 120 121 117 114 111 109 109 109 108 106 102 100 99 100 100 101 102 103 103 103 102 99 98 99 99 99 99 100 100 101 102 100 97 97 97 94 91 88 84
229 228 223 221 230 243 262 288 313 324 4 87 188 189 180 173 171 173 164 158 157 153 148 144 134 120 120 119 123 131 123 122 117 109 105 107 114 121 129 127 121 116 115 126 135 140 144 140 137 136 135 133 131 126 123 121 119 119 121 121 118 114 112 110 109 108 106 103 101 101 100 100 100 101 102 102 102 101 99 97 97 97 98 100 101 101 101 102 99 97 95 94 93 91 90 90 90
226 222 211 211 222 231 251 269 309 327 347 356 265 199 179 174 187 188 165 157 161 157 144 141 138 130 129 121 130 139 125 124 121 116 113 109 111 117 130 134 128 122 117 128 137 140 146 142 138 137 135 133 131 127 124 122 120 119 119 118 115 113 112 110 109 107 105 102 102 102 101 101 101 101 101 101 101 101 100 99 99 98 99 101 101 99 98 95 90 88 90 91 90 89 90 93 94
225 223 213 210 214 218 233 235 241 337 27 59 107 162 178 178 188 188 168 160 157 156 149 147 151 149 139 129 139 145 128 126 124 123 122 111 110 116 128 137 134 130 123 127 137 141 146 147 141 137 135 134 134 130 127 124 122 119 116 114 112 110 110 110 108 106 105 103 103 103 102 103 103 103 102 101 102 102 102 102 100 97 95 95 93 90 87 85 82 80 83 85 86 88 91 95 95
226 225 218 217 214 211 220 220 208 262 41 72 103 136 191 185 172 169 167 166 161 156 154 153 154 156 148 140 150 152 133 132 132 127 128 117 114 122 132 141 138 134 128 127 137 141 147 149 143 139 137 138 138 134 130 127 123 119 116 114 112 111 111 110 109 107 107 106 106 105 104 104 103 102 101 101 102 101 101 100 97 93 89 87 83 79 77 77 78 78 79 81 85 89 91 95 96
223 224 218 220 220 213 214 216 206 187 74 74 88 94 152 170 172 174 169 173 170 161 158 157 154 157 153 148 157 154 137 139 139 132 134 126 119 124 135 146 143 137 132 128 136 142 148 150 145 142 141 142 141 135 132 127 122 119 117 115 114 113 113 112 111 111 111 111 110 108 106 103 101 99 98 99 100 100 99 97 94 90 86 83 80 76 72 71 71 73 76 80 85 90 93 96 97
218 220 215 213 221 218 213 209 203 184 123 79 59 75 123 160 181 186 185 184 177 168 165 161 152 152 153 159 165 152 139 142 143 135 136 135 127 125 133 145 146 142 137 131 136 144 150 151 146 145 145 145 142 138 134 129 124 120 118 116 114 113 114 114 114 115 115 115 113 108 105 101 98 96 96 96 97 97 97 95 92 89 85 82 79 77 74 73 73 74 77 81 85 89 92 94 96
218 220 213 207 216 218 214 207 199 187 145 101 37 73 100 174 197 188 195 190 178 171 170 163 152 149 149 165 172 153 141 141 144 137 136 142 138 131 133 143 148 148 144 137 137 146 152 151 146 145 147 146 143 139 135 132 129 124 121 119 116 115 116 117 117 117 118 118 115 110 105 101 97 95 94 94 95 95 95 94 92 89 86 83 80 79 79 79 80 81 82 83 86 88 90 93 96
217 221 214 208 218 221 217 214 202 192 165 119 115 91 71 85 166 181 199 191 178 174 173 163 152 146 148 163 172 162 148 143 148 148 146 152 151 141 137 141 150 155 150 142 139 146 154 151 146 146 148 147 144 141 137 136 133 128 126 124 121 121 120 121 120 120 121 120 117 113 108 103 99 95 93 92 92 93 94 95 95 93 89 85 83 84 86 85 84 84 84 84 84 85 88 91 96
217 220 216 209 221 227 223 222 217 211 197 139 120 102 77 82 95 124 193 192 179 171 168 160 152 147 154 166 171 170 157 148 154 158 153 157 158 149 142 144 152 160 156 147 141 146 155 153 147 148 151 149 147 143 139 137 136 132 129 126 124 124 124 124 123 124 123 122 120 116 110 105 101 96 92 90 91 93 94 96 97 96 94 91 89 89 90 91 90 88 87 86 85 85 86 88 92
218 219 219 210 218 230 227 226 225 221 207 149 130 114 85 79 96 105 130 163 164 159 158 156 153 152 163 169 167 169 164 153 157 162 160 164 164 155 150 153 156 163 160 151 147 147 157 157 151 154 155 152 150 144 139 136 136 134 130 127 126 126 126 126 125 126 126 125 124 120 114 109 104 98 93 91 92 94 97 99 101 102 100 98 96 95 95 94 95 94 92 91 90 89 89 89 91
220 219 221 213 213 225 226 223 221 212 191 149 133 119 96 93 105 111 110 122 140 150 153 152 154 160 170 172 164 163 168 165 164 166 168 171 169 159 158 160 159 164 161 154 154 151 159 162 157 158 159 156 152 146 140 137 136 135 130 128 128 128 128 127 126 127 128 129 127 124 119 113 107 100 95 92 93 96 101 104 106 108 106 104 103 101 99 96 96 97 97 96 94 94 93 93 94
222 220 220 213 207 214 222 220 218 209 193 166 141 129 120 110 106 108 111 116 125 138 146 149 158 168 174 171 160 161 173 179 175 169 165 167 171 167 165 164 162 165 165 159 159 156 161 166 163 163 163 160 155 148 142 138 137 135 131 130 131 131 131 128 127 127 129 131 130 129 124 116 110 105 99 95 96 99 105 109 111 112 112 111 108 104 102 102 101 101 100 99 97 96 95 95 95
220 220 217 207 200 209 217 214 216 214 203 191 170 155 158 147 124 116 118 123 129 136 146 158 170 175 176 164 153 163 179 185 181 172 164 165 172 175 175 172 166 167 168 163 163 161 163 168 167 166 167 164 158 152 145 141 140 137 133 132 133 135 134 130 128 129 130 132 133 133 128 120 116 111 104 100 99 103 109 115 117 118 118 116 112 109 109 107 104 102 100 98 96 94 95 97 98
222 221 214 202 197 207 213 211 213 211 203 197 187 179 180 174 156 140 134 137 144 149 158 178 186 184 176 157 152 168 183 187 179 173 171 169 173 178 183 181 172 168 168 164 165 165 166 171 171 168 170 168 163 156 149 146 143 140 136 135 135 136 136 133 131 131 131 134 136 136 133 127 122 115 109 105 102 106 113 118 122 124 123 121 119 117 114 109 105 103 100 97 95 94 95 97 99
222 222 213 192 195 206 211 212 212 206 202 201 195 196 200 192 181 169 162 160 161 162 167 189 205 201 189 165 162 172 179 184 179 170 170 176 181 183 185 186 179 172 169 165 167 170 169 173 172 170 172 171 166 159 152 149 146 143 139 136 136 136 136 136 134 132 132 136 138 138 135 128 122 116 110 106 105 109 116 121 124 126 125 124 123 120 115 110 106 101 97 95 95 96 96 96 96
218 221 213 190 189 200 203 209 213 207 204 203 196 202 212 208 201 194 191 185 179 175 173 187 206 218 222 202 184 177 171 178 188 177 168 180 194 192 184 188 184 177 173 168 168 174 173 173 172 171 174 173 168 163 157 153 150 147 144 139 136 137 139 139 137 135 134 137 140 139 136 128 124 120 112 107 108 112 117 122 125 125 124 125 126 123 119 114 108 103 99 96 96 97 96 95 93
215 217 215 201 188 188 196 203 206 204 203 200 193 197 208 212 211 205 203 198 191 189 180 183 201 218 234 231 215 192 173 179 193 192 180 184 197 199 186 185 187 183 177 171 169 175 177 175 173 171 174 175 170 166 162 158 156 153 149 144 139 139 142 141 139 138 137 139 142 143 141 136 131 124 115 110 110 113 119 122 123 124 128 131 133 131 127 120 114 111 107 102 99 97 96 95 92
212 211 213 208 194 188 193 197 197 195 197 198 191 191 198 203 205 199 195 192 190 195 194 196 205 211 227 235 234 217 188 184 194 202 196 192 197 200 190 183 188 186 180 174 171 176 178 177 174 171 173 174 172 169 165 162 162 160 154 149 145 143 145 143 142 142 140 141 146 148 147 141 133 124 117 115 114 118 121 121 120 122 128 133 135 135 131 125 120 119 116 110 104 99 95 93 92
209 209 211 211 203 196 196 198 196 191 193 196 187 183 187 186 187 186 184 183 185 198 206 211 213 209 215 222 227 227 208 192 194 204 208 203 201 202 196 186 186 187 183 178 176 177 179 177 175 174 173 173 173 171 167 166 168 166 159 156 154 151 150 148 148 148 144 147 152 153 149 140 133 125 124 125 124 124 121 118 116 116 120 125 130 133 133 130 126 124 122 116 109 103 98 92 90
209 211 213 215 213 207 203 202 201 194 189 190 186 185 186 178 173 173 174 175 176 191 212 220 221 214 213 216 220 223 218 204 196 201 209 209 204 205 203 190 184 188 186 182 182 182 180 178 177 176 173 172 173 173 172 171 172 172 166 163 161 158 158 157 157 158 154 156 158 155 148 139 132 129 131 132 129 126 119 112 109 108 111 115 122 127 130 131 128 126 125 122 116 108 101 95 90
209 211 213 216 217 216 211 206 206 198 183 182 185 187 188 182 177 172 169 171 169 179 218 232 228 220 218 220 223 223 219 213 202 199 209 214 206 204 206 193 186 191 190 187 186 187 184 181 178 176 174 174 175 175 176 175 176 175 170 168 166 163 164 161 160 162 160 158 156 153 148 139 133 132 133 132 130 126 118 110 105 104 106 109 116 122 125 129 128 127 126 125 121 113 104 97 92
213 212 209 209 211 217 216 210 209 201 186 185 187 187 190 188 183 176 172 173 169 173 210 237 235 226 223 221 224 222 208 198 195 188 202 219 212 201 201 198 195 196 196 192 189 191 188 183 179 176 175 176 177 176 179 179 177 175 172 169 167 163 163 158 157 163 160 155 155 154 150 142 137 137 136 135 134 127 119 112 107 105 105 107 112 116 120 124 125 124 123 123 124 120 114 105 98
215 214 207 202 205 213 215 212 214 207 195 193 192 192 195 194 188 181 178 177 171 173 199 231 237 232 226 221 223 219 199 190 191 182 190 215 221 207 199 203 204 198 197 194 190 194 192 185 181 177 175 177 179 178 180 180 175 174 171 165 163 161 160 157 155 161 159 157 157 155 151 143 139 141 141 141 139 132 125 120 114 110 108 107 108 111 114 116 117 118 118 120 122 121 116 107 99
213 209 203 202 204 209 211 212 216 214 206 202 200 199 200 202 196 185 182 182 173 174 198 220 231 233 227 219 220 216 199 189 189 184 184 201 219 215 203 205 206 198 195 193 191 193 195 189 184 179 175 177 181 180 179 177 173 171 165 158 160 163 164 162 160 162 162 160 157 153 149 143 141 143 145 147 145 138 132 126 118 114 112 109 108 109 111 111 112 115 115 117 120 119 113 105 100
211 200 193 200 202 203 207 212 217 218 213 209 210 207 204 209 207 195 191 188 178 182 204 217 224 229 223 213 209 206 200 193 188 186 184 193 211 216 206 205 208 204 198 197 196 193 196 194 187 180 177 177 179 179 177 176 173 170 167 166 168 170 172 168 161 161 163 160 156 153 149 145 146 148 151 155 151 143 138 129 120 116 114 113 113 112 112 111 111 113 113 115 118 120 115 108 103
210 193 185 195 197 198 206 213 218 219 213 210 213 211 205 209 211 206 203 196 186 187 202 213 217 222 220 211 204 199 200 201 194 189 185 190 209 216 208 203 209 211 203 200 201 196 194 197 190 184 180 178 178 178 176 176 176 175 176 177 176 173 172 167 160 159 161 160 158 156 153 152 154 155 158 160 155 147 141 133 125 121 119 118 118 117 116 114 113 112 110 109 112 117 118 112 109
209 191 186 192 194 197 207 214 219 222 215 211 211 209 207 206 203 204 205 203 195 189 199 215 213 213 215 212 207 203 206 211 204 191 180 181 199 213 210 204 208 214 207 200 202 199 194 196 192 188 184 180 178 179 177 176 180 184 184 183 179 172 169 167 164 161 160 161 162 160 157 157 159 160 161 161 158 152 145 138 131 127 123 119 117 118 118 115 111 109 106 103 104 109 113 113 115
206 194 189 192 194 198 207 214 219 223 220 214 210 210 210 206 201 203 205 206 202 188 193 216 213 206 207 208 210 212 216 215 204 193 182 178 186 199 209 209 209 213 210 202 202 201 197 194 193 191 188 184 179 181 181 179 185 191 189 184 179 173 169 167 165 163 162 164 165 163 160 161 164 165 164 163 164 161 153 146 138 131 125 120 117 118 118 115 110 106 101 99 100 103 109 116 119
206 199 192 192 196 199 206 213 217 221 223 219 215 215 214 211 212 213 211 212 207 187 189 210 215 207 202 204 209 213 217 213 203 197 190 184 185 193 202 208 209 208 212 208 200 200 199 196 193 192 191 188 183 183 184 185 189 194 193 186 180 175 171 168 166 164 164 166 168 166 164 165 169 172 171 170 172 169 161 151 142 134 130 125 121 120 119 116 114 110 104 100 102 105 113 118 117
209 206 197 192 196 199 204 211 216 220 222 221 221 219 216 214 216 217 214 212 200 183 193 208 214 209 202 202 206 209 211 207 202 195 186 184 190 199 204 209 211 209 215 218 204 196 197 197 196 195 194 191 186 186 187 189 191 195 194 188 183 180 176 173 169 167 168 169 171 172 171 170 174 179 179 180 181 177 170 159 146 138 134 127 123 121 120 119 119 118 113 112 111 112 118 119 114
214 212 205 197 196 200 204 209 214 219 221 221 223 223 219 213 211 213 209 196 181 177 203 215 212 208 204 201 201 204 207 206 202 196 187 184 190 203 212 216 219 217 218 223 215 199 193 196 199 198 196 193 190 189 190 190 193 196 194 189 188 186 182 179 174 173 174 174 176 178 178 177 179 184 185 187 189 184 177 165 151 143 135 130 126 123 122 124 128 127 123 121 117 115 121 121 116
216 216 213 206 199 200 205 209 214 219 221 222 223 226 227 217 209 211 209 199 194 197 226 234 228 221 214 208 204 200 202 206 205 202 200 198 194 197 207 215 221 225 221 217 218 209 195 193 197 199 198 195 194 193 192 192 194 196 194 192 192 189 187 186 181 178 178 179 180 183 185 186 186 188 190 192 193 189 181 166 155 148 139 133 131 129 130 133 134 131 128 125 119 117 121 120 118
218 215 216 214 207 203 205 210 215 218 220 223 226 229 233 228 215 212 215 215 215 212 214 228 236 230 222 218 214 208 203 203 207 208 206 206 203 196 195 204 211 217 218 211 212 215 204 194 194 199 200 198 196 195 194 193 195 196 194 194 195 192 191 191 187 183 181 182 185 187 189 192 192 193 195 197 197 191 182 169 159 152 143 139 138 137 139 140 139 134 132 129 123 122 120 117 118
222 218 217 216 214 210 208 210 215 217 217 221 226 228 233 235 226 217 218 221 217 207 200 210 222 225 224 222 222 224 218 208 206 209 207 205 205 200 194 197 203 210 215 210 207 214 213 202 196 198 201 200 198 197 196 196 198 197 194 195 197 195 194 194 191 186 184 185 187 188 190 192 194 196 198 201 201 194 184 173 162 154 148 145 144 144 145 144 141 138 136 131 126 123 119 117 118
223 221 219 216 214 213 212 211 213 215 216 219 223 226 230 233 231 224 220 221 218 208 204 210 218 224 225 219 219 231 233 221 209 205 207 207 206 204 199 197 201 208 213 213 209 212 217 212 203 199 200 201 199 197 197 198 201 199 195 195 199 199 196 197 195 191 190 190 188 188 190 192 194 197 200 202 203 197 187 176 164 156 153 151 150 150 149 147 144 144 139 132 126 124 122 123 122
223 223 221 220 219 216 213 212 213 214 215 217 220 225 229 231 231 228 223 223 221 213 209 213 219 227 225 219 219 223 229 233 221 208 204 207 206 203 201 199 201 207 212 215 214 214 216 216 210 203 200 201 201 198 197 199 201 202 199 196 199 202 199 199 199 196 196 196 192 190 190 190 192 196 200 203 203 199 189 178 167 160 158 157 157 156 155 153 151 148 142 134 129 126 124 125 120
223 225 223 222 222 221 217 215 214 215 216 217 217 220 226 229 229 228 225 224 223 218 214 214 218 226 226 222 223 221 216 226 231 220 210 207 206 201 198 197 199 205 210 212 213 215 216 215 214 209 202 200 202 201 199 198 199 201 202 200 200 203 204 202 203 202 201 200 198 194 191 189 192 195 197 201 202 199 190 180 172 166 163 163 163 162 161 158 154 151 145 138 133 129 124 121 115
221 224 224 222 220 221 220 219 219 218 217 218 216 215 221 226 228 228 225 224 224 223 220 217 219 224 226 224 220 214 209 213 225 231 221 211 206 203 200 199 200 205 211 214 214 216 216 214 214 213 206 202 203 204 201 198 198 200 203 203 202 204 207 206 205 207 207 206 205 202 196 194 195 195 195 199 201 199 190 183 177 172 168 167 168 167 165 161 158 153 149 143 137 134 130 124 119
217 219 222 221 220 220 219 219 221 222 222 221 218 215 217 222 225 226 225 224 223 223 222 220 222 223 222 222 216 208 208 209 212 225 224 211 205 205 205 204 204 206 212 218 218 219 219 216 213 212 211 207 205 206 205 201 198 199 202 205 204 204 208 209 207 206 209 212 211 209 206 202 199 198 198 199 200 198 191 185 182 178 174 172 172 171 169 165 162 158 153 149 145 142 138 133 128
216 217 219 219 220 221 221 220 219 220 222 223 222 220 218 219 222 223 224 225 223 222 222 222 223 222 220 218 214 210 209 208 207 214 218 207 200 202 207 207 206 207 212 217 218 218 219 217 211 209 211 211 207 208 210 207 203 201 202 203 205 205 207 210 210 206 208 213 215 215 214 210 206 204 203 202 203 200 193 188 186 183 180 178 176 175 174 170 167 163 159 157 154 152 148 144 139
214 216 218 218 219 221 222 222 221 218 219 220 222 223 221 219 221 221 222 224 224 222 221 220 221 220 217 215 213 212 212 211 209 211 215 208 198 199 207 209 208 209 212 217 218 217 217 215 211 207 207 209 208 207 209 210 208 205 204 204 205 206 207 209 210 208 207 211 214 215 217 216 215 213 210 208 208 203 195 191 191 187 183 183 181 179 178 175 172 170 167 165 163 160 157 154 150